Philadelphia, PA

7:55 AM EDT on August 19, 2017 (GMT -0400)
Philadelphia International

Weather History for KPHL - August, 2012

Change the Weather History Date:

Friday, August 3, 2012

  Actual Average Record
Temperature  
Mean Temperature 84 °F 78 °F  
Max Temperature 92 °F 87 °F 98 °F (1975)
Min Temperature 76 °F 69 °F 56 °F (1959)
Degree Days  
Heating Degree Days 0 0  
Month to date heating degree days 0 0  
Since 1 June heating degree days 7 11  
Since 1 July heating degree days 0 0  
Cooling Degree Days 19 13  
Month to date cooling degree days 46 39  
Year to date cooling degree days 1007 796  
Since 1 June cooling degree days 843 705  
Growing Degree Days 33 (Base 50)    
Moisture  
Dew Point 72 °F    
Average Humidity 71    
Maximum Humidity 94    
Minimum Humidity 47    
Precipitation  
Precipitation 0.03 in 0.12 in 5.63 in (1898)
Month to date precipitation 0.46 0.37  
Year to date precipitation 16.00 24.89  
Snow  
Snow 0.00 in 0.00 in 0.00 in ()
Month to date snowfall 0.0 0.0  
Since 1 June snowfall 0.0 0.0  
Since 1 July snowfall 0.0 0.0  
Snow Depth 0.00 in    
Sea Level Pressure  
Sea Level Pressure 30.01 in    
Wind  
Wind Speed 5 mph (SSW)    
Max Wind Speed 29 mph    
Max Gust Speed 35 mph    
Visibility 10 miles    
Events Rain , Thunderstorm    
T = Trace of Precipitation, MM = Missing Value Source: NWS Daily Summary

Daily Weather History Graph

Daily Weather History Graph

Search for Another Location

Airport or City:

Trip Planner

Search our weather history database for the weather conditions in past years. The results will help you decide how hot, cold, wet, or windy it might be!

Date:

Astronomy

Aug. 03, 2012 Rise Set
Actual Time 6:01 AM EDT 8:11 PM EDT
Civil Twilight 5:31 AM EDT 8:41 PM EDT
Nautical Twilight 4:55 AM EDT 9:18 PM EDT
Astronomical Twilight 4:14 AM EDT 9:58 PM EDT
Moon 8:49 PM EDT (8/3) 7:42 AM EDT (8/3)
Length of Visible Light 15h 09m
Length of Day
14h 09m
Full, 97% of the Moon is Illuminated
Aug 3
Full
Aug 9
Last Quarter
Aug 17
New
Aug 24
First Quarter
Aug 31
Full

Hourly Weather History & Observations

Time (EDT) Temp. Heat Index Dew Point Humidity Pressure Visibility Wind Dir Wind Speed Gust Speed Precip Events Conditions
12:54 AM 78.1 °F - 73.9 °F 87% 29.95 in 10.0 mi Calm Calm - N/A   Partly Cloudy
1:54 AM 78.1 °F - 73.9 °F 87% 29.95 in 10.0 mi Calm Calm - N/A   Partly Cloudy
2:54 AM 77.0 °F - 73.9 °F 90% 29.95 in 10.0 mi South 4.6 mph - N/A   Clear
4:54 AM 75.9 °F - 73.9 °F 94% 29.95 in 10.0 mi South 6.9 mph - N/A   Partly Cloudy
5:54 AM 75.9 °F - 73.0 °F 91% 29.97 in 10.0 mi SSW 5.8 mph - N/A   Partly Cloudy
6:11 AM 75.2 °F - 73.4 °F 94% 29.98 in 9.0 mi SSW 5.8 mph - N/A   Scattered Clouds
6:54 AM 75.9 °F - 72.0 °F 87% 29.99 in 9.0 mi SSW 5.8 mph - N/A   Mostly Cloudy
7:54 AM 78.1 °F - 73.0 °F 84% 29.99 in 8.0 mi SSW 4.6 mph - N/A   Mostly Cloudy
8:51 AM 78.8 °F - 73.4 °F 83% 30.00 in 10.0 mi SW 4.6 mph - N/A   Scattered Clouds
8:54 AM 79.0 °F - 72.0 °F 79% 30.00 in 10.0 mi Variable 3.5 mph - N/A   Scattered Clouds
9:54 AM 82.0 °F 87.4 °F 73.0 °F 74% 30.01 in 10.0 mi SSW 5.8 mph - N/A   Mostly Cloudy
10:54 AM 84.9 °F 91.4 °F 73.0 °F 67% 30.02 in 10.0 mi Variable 3.5 mph - N/A   Mostly Cloudy
11:54 AM 87.1 °F 93.6 °F 72.0 °F 61% 30.03 in 10.0 mi Calm Calm - N/A   Mostly Cloudy
12:54 PM 89.1 °F 96.0 °F 72.0 °F 57% 30.02 in 10.0 mi Calm Calm - N/A   Mostly Cloudy
1:54 PM 90.0 °F 96.4 °F 71.1 °F 54% 30.02 in 10.0 mi SSW 5.8 mph - N/A   Mostly Cloudy
2:54 PM 91.9 °F 97.4 °F 70.0 °F 48% 30.01 in 10.0 mi SSW 9.2 mph - N/A   Mostly Cloudy
3:54 PM 91.0 °F 97.6 °F 71.1 °F 52% 30.01 in 10.0 mi South 8.1 mph - N/A   Overcast
4:54 PM 91.9 °F 95.9 °F 68.0 °F 45% 30.01 in 10.0 mi SW 10.4 mph - N/A   Overcast
5:09 PM 89.6 °F 96.2 °F 71.6 °F 55% 30.02 in 10.0 mi South 8.1 mph - N/A Thunderstorm Thunderstorm
5:44 PM 80.6 °F 84.6 °F 71.6 °F 74% 30.05 in 10.0 mi West 20.7 mph 27.6 mph 0.00 in Rain , Thunderstorm Light Thunderstorms and Rain
5:54 PM 79.0 °F - 70.0 °F 74% 30.05 in 7.0 mi WSW 21.9 mph 28.8 mph 0.00 in Rain , Thunderstorm Light Thunderstorms and Rain
6:17 PM 77.0 °F - 69.8 °F 78% 30.03 in 10.0 mi SW 13.8 mph - 0.03 in Rain Light Rain
6:54 PM 79.0 °F - 69.1 °F 72% 30.03 in 10.0 mi Calm Calm - 0.03 in   Overcast
7:54 PM 80.1 °F 83.6 °F 71.1 °F 74% 30.05 in 10.0 mi Calm Calm - N/A   Overcast
8:54 PM 81.0 °F 84.4 °F 70.0 °F 69% 30.05 in 10.0 mi SSW 5.8 mph - N/A   Overcast
9:54 PM 79.0 °F - 71.1 °F 77% 30.09 in 10.0 mi Calm Calm - N/A   Mostly Cloudy
10:54 PM 80.1 °F 83.8 °F 72.0 °F 76% 30.10 in 10.0 mi ESE 4.6 mph - N/A   Overcast
11:54 PM 79.0 °F - 73.9 °F 84% 30.10 in 10.0 mi SSE 4.6 mph - N/A   Mostly Cloudy